Flag for U.S.A. Weather past 2 weeks in Farmington, New Mexico, U.S.A.

Now
56 °F

Partly sunny.


Feels Like: 56 °F
Forecast: 44 / 61 °F
Wind: 3 mph from East

Location: Four Corners Regional Airport

Current Time: Apr 24, 2015 at 7:23:20 PM

Latest Report: Apr 24, 2015 at 6:53 PM


Visibility: 10 mi

Pressure: 29.75 "Hg

Humidity: 44%

Dew point: 34 °F

Location of FarmingtonLocation

Historic Weather in Farmington — Graph

°F

Farmington temperature yesterday

Maximum temperature yesterday: 67 °F (at 1:53 PM)
Minimum temperature yesterday: 42 °F (at 6:53 AM)
Average temperature yesterday: 56 °F

Past Weeks' High & Low Weather Summary

 TemperatureHumidityPressure
High73 °F (Apr 14, 2:53 PM)100% (Apr 18, 12:53 AM)30.14 "Hg (Apr 18, 12:53 AM)
Low22 °F (Apr 17, 5:53 AM)6% (Apr 10, 4:53 PM)29.69 "Hg (Apr 24, 3:53 PM)
Average50 °F33%29.91 "Hg
* Reported Apr 9 4:53 PM — Apr 24 4:53 PM, Farmington, Weather by CustomWeather, © 2015

Note: Actual official high and low records may vary slightly from our data, if they occured in-between our weather recording intervals... More about our weather records

Advertising

Farmington weather history for previous 24 hours

 ConditionsComfort  
Time TempWeatherWind HumidityBarometerVisibility
4:53 PM
Fri, Apr 24
58 °FBroken clouds.10 mph38%29.71 "Hg10 mi
3:53 PM64 °FPassing clouds.17 mph18%29.69 "Hg10 mi
2:53 PM65 °FPassing clouds.18 mph19%29.69 "Hg10 mi
1:53 PM64 °FScattered clouds.17 mph19%29.70 "Hg10 mi
12:53 PM64 °FScattered clouds.17 mph23%29.71 "Hg10 mi
11:53 AM59 °FBroken clouds.20 mph26%29.75 "Hg10 mi
10:53 AM59 °FScattered clouds.15 mph28%29.76 "Hg10 mi
9:53 AM54 °FPassing clouds.No wind43%29.77 "Hg10 mi
8:53 AM50 °FSunny.8 mph57%29.79 "Hg10 mi
7:53 AM45 °FSunny.7 mph71%29.79 "Hg10 mi
6:53 AM44 °FClear.6 mph71%29.77 "Hg10 mi
5:53 AM46 °FPassing clouds.10 mph63%29.76 "Hg10 mi
4:53 AM47 °FMostly cloudy.7 mph61%29.75 "Hg10 mi
3:53 AM48 °FPassing clouds.7 mph59%29.76 "Hg10 mi
2:53 AM49 °FPassing clouds.8 mph55%29.75 "Hg10 mi
1:53 AM49 °FClear.6 mph48%29.75 "Hg10 mi
12:53 AM52 °FPassing clouds.14 mph43%29.77 "Hg10 mi
11:53 PM
Thu, Apr 23
53 °FOvercast.3 mph38%29.77 "Hg10 mi
10:53 PM55 °FOvercast.3 mph34%29.75 "Hg10 mi
9:53 PM55 °FPassing clouds.3 mph35%29.78 "Hg10 mi
8:53 PM55 °FPassing clouds.No wind33%29.77 "Hg10 mi
7:53 PM57 °FPartly sunny.16 mph29%29.77 "Hg10 mi
Weather by CustomWeather, © 2015

See weather overviewHow to use our weather pages